Year,Month,Day,Hour,Minute,Value (Times are PST for temperature in C)
2012,06,05,00,00,11.20
2012,06,05,00,01,11.20
2012,06,05,00,02,11.20
2012,06,05,00,03,11.20
2012,06,05,00,04,11.20
2012,06,05,00,05,11.10
2012,06,05,00,06,11.10
2012,06,05,00,07,11.10
2012,06,05,00,08,11.10
2012,06,05,00,09,11.10
2012,06,05,00,10,11.00
2012,06,05,00,11,11.00
2012,06,05,00,12,11.00
2012,06,05,00,13,10.90
2012,06,05,00,14,10.90
2012,06,05,00,15,10.90
2012,06,05,00,16,10.90
2012,06,05,00,17,10.80
2012,06,05,00,18,10.80
2012,06,05,00,19,10.80
2012,06,05,00,20,10.80
2012,06,05,00,21,10.80
2012,06,05,00,22,10.80
2012,06,05,00,23,10.80
2012,06,05,00,24,10.70
2012,06,05,00,25,10.70
2012,06,05,00,26,10.70
2012,06,05,00,27,10.70
2012,06,05,00,28,10.70
2012,06,05,00,29,10.70
2012,06,05,00,30,10.60
2012,06,05,00,31,10.60
2012,06,05,00,32,10.60
2012,06,05,00,33,10.60
2012,06,05,00,34,10.50
2012,06,05,00,35,10.50
2012,06,05,00,36,10.50
2012,06,05,00,37,10.50
2012,06,05,00,38,10.50
2012,06,05,00,39,10.50
2012,06,05,00,40,10.50
2012,06,05,00,41,10.50
2012,06,05,00,42,10.50
2012,06,05,00,43,10.50
2012,06,05,00,44,10.40
2012,06,05,00,45,10.40
2012,06,05,00,46,10.40
2012,06,05,00,47,10.30
2012,06,05,00,48,10.30
2012,06,05,00,49,10.30
2012,06,05,00,50,10.30
2012,06,05,00,51,10.20
2012,06,05,00,52,10.20
2012,06,05,00,53,10.20
2012,06,05,00,54,10.20
2012,06,05,00,55,10.20
2012,06,05,00,56,10.20
2012,06,05,00,57,10.20
2012,06,05,00,58,10.20
2012,06,05,00,59,10.20
2012,06,05,01,00,10.20
2012,06,05,01,01,10.20
2012,06,05,01,02,10.20
2012,06,05,01,03,10.20
2012,06,05,01,04,10.20
2012,06,05,01,05,10.20
2012,06,05,01,06,10.20
2012,06,05,01,07,10.20
2012,06,05,01,08,10.20
2012,06,05,01,09,10.20
2012,06,05,01,10,10.20
2012,06,05,01,11,10.20
2012,06,05,01,12,10.20
2012,06,05,01,13,10.20
2012,06,05,01,14,10.20
2012,06,05,01,15,10.10
2012,06,05,01,16,10.10
2012,06,05,01,17,10.10
2012,06,05,01,18,10.10
2012,06,05,01,19,10.10
2012,06,05,01,20,10.10
2012,06,05,01,21,10.10
2012,06,05,01,22,10.00
2012,06,05,01,23,10.00
2012,06,05,01,24,10.00
2012,06,05,01,25,9.90
2012,06,05,01,26,9.90
2012,06,05,01,27,9.90
2012,06,05,01,28,9.90
2012,06,05,01,29,9.90
2012,06,05,01,30,9.90
2012,06,05,01,31,9.80
2012,06,05,01,32,9.80
2012,06,05,01,33,9.80
2012,06,05,01,34,9.80
2012,06,05,01,35,9.80
2012,06,05,01,36,9.80
2012,06,05,01,37,9.70
2012,06,05,01,38,9.70
2012,06,05,01,39,9.70
2012,06,05,01,40,9.70
2012,06,05,01,41,9.70
2012,06,05,01,42,9.80
2012,06,05,01,43,9.80
2012,06,05,01,44,9.80
2012,06,05,01,45,9.80
2012,06,05,01,46,9.80
2012,06,05,01,47,9.80
2012,06,05,01,48,9.80
2012,06,05,01,49,9.80
2012,06,05,01,50,9.80
2012,06,05,01,51,9.80
2012,06,05,01,52,9.80
2012,06,05,01,53,9.80
2012,06,05,01,54,9.90
2012,06,05,01,55,9.90
2012,06,05,01,56,9.90
2012,06,05,01,57,9.80
2012,06,05,01,58,9.80
2012,06,05,01,59,9.80
2012,06,05,02,00,9.80
2012,06,05,02,01,9.70
2012,06,05,02,02,9.70
2012,06,05,02,03,9.70
2012,06,05,02,04,9.70
2012,06,05,02,05,9.70
2012,06,05,02,06,9.70
2012,06,05,02,07,9.70
2012,06,05,02,08,9.70
2012,06,05,02,09,9.60
2012,06,05,02,10,9.60
2012,06,05,02,11,9.60
2012,06,05,02,12,9.60
2012,06,05,02,13,9.70
2012,06,05,02,14,9.70
2012,06,05,02,15,9.70
2012,06,05,02,16,9.70
2012,06,05,02,17,9.70
2012,06,05,02,18,9.70
2012,06,05,02,19,9.80
2012,06,05,02,20,9.80
2012,06,05,02,21,9.80
2012,06,05,02,22,9.80
2012,06,05,02,23,9.90
2012,06,05,02,24,9.90
2012,06,05,02,25,9.90
2012,06,05,02,26,10.00
2012,06,05,02,27,10.00
2012,06,05,02,28,10.10
2012,06,05,02,29,10.10
2012,06,05,02,30,10.10
2012,06,05,02,31,10.10
2012,06,05,02,32,10.10
2012,06,05,02,33,10.10
2012,06,05,02,34,10.10
2012,06,05,02,35,10.10
2012,06,05,02,36,10.10
2012,06,05,02,37,10.10
2012,06,05,02,38,10.10
2012,06,05,02,39,10.10
2012,06,05,02,40,10.10
2012,06,05,02,41,10.10
2012,06,05,02,42,10.10
2012,06,05,02,43,10.20
2012,06,05,02,44,10.20
2012,06,05,02,45,10.20
2012,06,05,02,46,10.20
2012,06,05,02,47,10.20
2012,06,05,02,48,10.20
2012,06,05,02,49,10.20
2012,06,05,02,50,10.20
2012,06,05,02,51,10.30
2012,06,05,02,52,10.30
2012,06,05,02,53,10.30
2012,06,05,02,54,10.30
2012,06,05,02,55,10.30
2012,06,05,02,56,10.30
2012,06,05,02,57,10.30
2012,06,05,02,58,10.30
2012,06,05,02,59,10.30
2012,06,05,03,00,10.30
2012,06,05,03,01,10.40
2012,06,05,03,02,10.40
2012,06,05,03,06,10.40
2012,06,05,03,07,10.40
2012,06,05,03,08,10.50
2012,06,05,03,09,10.50
2012,06,05,03,10,10.50
2012,06,05,03,11,10.50
2012,06,05,03,12,10.50
2012,06,05,03,13,10.50
2012,06,05,03,14,10.50
2012,06,05,03,15,10.50
2012,06,05,03,16,10.60
2012,06,05,03,17,10.60
2012,06,05,03,18,10.60
2012,06,05,03,19,10.60
2012,06,05,03,20,10.60
2012,06,05,03,21,10.60
2012,06,05,03,22,10.60
2012,06,05,03,23,10.60
2012,06,05,03,24,10.60
2012,06,05,03,25,10.50
2012,06,05,03,26,10.50
2012,06,05,03,27,10.50
2012,06,05,03,28,10.50
2012,06,05,03,29,10.50
2012,06,05,03,30,10.50
2012,06,05,03,31,10.50
2012,06,05,03,32,10.60
2012,06,05,03,33,10.60
2012,06,05,03,34,10.60
2012,06,05,03,35,10.60
2012,06,05,03,36,10.60
2012,06,05,03,37,10.70
2012,06,05,03,38,10.70
2012,06,05,03,39,10.70
2012,06,05,03,40,10.70
2012,06,05,03,41,10.70
2012,06,05,03,42,10.80
2012,06,05,03,43,10.80
2012,06,05,03,44,10.90
2012,06,05,03,45,11.00
2012,06,05,03,46,11.10
2012,06,05,03,47,11.20
2012,06,05,03,48,11.30
2012,06,05,03,49,11.30
2012,06,05,03,50,11.40
2012,06,05,03,51,11.40
2012,06,05,03,52,11.50
2012,06,05,03,53,11.50
2012,06,05,03,54,11.60
2012,06,05,03,55,11.60
2012,06,05,03,56,11.60
2012,06,05,03,57,11.60
2012,06,05,03,58,11.60
2012,06,05,03,59,11.60
2012,06,05,04,00,11.60
2012,06,05,04,01,11.70
2012,06,05,04,02,11.70
2012,06,05,04,03,11.70
2012,06,05,04,04,11.70
2012,06,05,04,05,11.70
2012,06,05,04,06,11.70
2012,06,05,04,07,11.70
2012,06,05,04,08,11.70
2012,06,05,04,09,11.70
2012,06,05,04,10,11.80
2012,06,05,04,11,11.80
2012,06,05,04,12,11.80
2012,06,05,04,13,11.80
2012,06,05,04,14,11.80
2012,06,05,04,15,11.80
2012,06,05,04,16,11.80
2012,06,05,04,17,11.80
2012,06,05,04,18,11.80
2012,06,05,04,19,11.80
2012,06,05,04,20,11.80
2012,06,05,04,21,11.80
2012,06,05,04,22,11.80
2012,06,05,04,23,11.80
2012,06,05,04,24,11.80
2012,06,05,04,25,11.80
2012,06,05,04,26,11.80
2012,06,05,04,27,11.80
2012,06,05,04,28,11.80
2012,06,05,04,29,11.80
2012,06,05,04,30,11.80
2012,06,05,04,31,11.80
2012,06,05,04,32,11.80
2012,06,05,04,33,11.80
2012,06,05,04,34,11.80
2012,06,05,04,35,11.80
2012,06,05,04,36,11.80
2012,06,05,04,37,11.80
2012,06,05,04,38,11.80
2012,06,05,04,39,11.80
2012,06,05,04,40,11.80
2012,06,05,04,41,11.80
2012,06,05,04,42,11.80
2012,06,05,04,43,11.80
2012,06,05,04,44,11.80
2012,06,05,04,45,11.80
2012,06,05,04,46,11.80
2012,06,05,04,47,11.80
2012,06,05,04,48,11.80
2012,06,05,04,49,11.80
2012,06,05,04,50,11.80
2012,06,05,04,51,11.80
2012,06,05,04,52,11.70
2012,06,05,04,53,11.70
2012,06,05,04,54,11.70
2012,06,05,04,55,11.70
2012,06,05,04,56,11.70
2012,06,05,04,57,11.70
2012,06,05,04,58,11.70
2012,06,05,04,59,11.70
2012,06,05,05,00,11.70
2012,06,05,05,01,11.70
2012,06,05,05,02,11.70
2012,06,05,05,03,11.70
2012,06,05,05,04,11.70
2012,06,05,05,05,11.70
2012,06,05,05,06,11.70
2012,06,05,05,07,11.70
2012,06,05,05,08,11.70
2012,06,05,05,09,11.70
2012,06,05,05,10,11.70
2012,06,05,05,11,11.70
2012,06,05,05,12,11.70
2012,06,05,05,13,11.70
2012,06,05,05,14,11.70
2012,06,05,05,15,11.70
2012,06,05,05,16,11.70
2012,06,05,05,17,11.70
2012,06,05,05,18,11.70
2012,06,05,05,19,11.70
2012,06,05,05,20,11.70
2012,06,05,05,21,11.70
2012,06,05,05,22,11.70
2012,06,05,05,23,11.70
2012,06,05,05,24,11.70
2012,06,05,05,25,11.70
2012,06,05,05,26,11.70
2012,06,05,05,27,11.70
2012,06,05,05,28,11.70
2012,06,05,05,29,11.70
2012,06,05,05,30,11.70
2012,06,05,05,31,11.70
2012,06,05,05,32,11.70
2012,06,05,05,33,11.70
2012,06,05,05,34,11.70
2012,06,05,05,35,11.70
2012,06,05,05,36,11.70
2012,06,05,05,37,11.70
2012,06,05,05,38,11.70
2012,06,05,05,39,11.70
2012,06,05,05,40,11.70
2012,06,05,05,41,11.70
2012,06,05,05,42,11.70
2012,06,05,05,43,11.70
2012,06,05,05,44,11.70
2012,06,05,05,45,11.70
2012,06,05,05,46,11.70
2012,06,05,05,47,11.70
2012,06,05,05,48,11.70
2012,06,05,05,49,11.70
2012,06,05,05,50,11.70
2012,06,05,05,51,11.70
2012,06,05,05,52,11.70
2012,06,05,05,53,11.70
2012,06,05,05,54,11.70
2012,06,05,05,55,11.70
2012,06,05,05,56,11.70
2012,06,05,05,57,11.70
2012,06,05,05,58,11.70
2012,06,05,05,59,11.70
2012,06,05,06,00,11.70
2012,06,05,06,01,11.70
2012,06,05,06,02,11.70
2012,06,05,06,03,11.70
2012,06,05,06,04,11.70
2012,06,05,06,05,11.70
2012,06,05,06,06,11.70
2012,06,05,06,07,11.70
2012,06,05,06,08,11.70
2012,06,05,06,09,11.70
2012,06,05,06,10,11.70
2012,06,05,06,11,11.70
2012,06,05,06,12,11.70
2012,06,05,06,13,11.70
2012,06,05,06,14,11.70
2012,06,05,06,15,11.70
2012,06,05,06,16,11.70
2012,06,05,06,17,11.70
2012,06,05,06,18,11.70
2012,06,05,06,19,11.70
2012,06,05,06,20,11.70
2012,06,05,06,21,11.70
2012,06,05,06,22,11.80
2012,06,05,06,23,11.80
2012,06,05,06,24,11.80
2012,06,05,06,25,11.80
2012,06,05,06,26,11.80
2012,06,05,06,27,11.80
2012,06,05,06,28,11.80
2012,06,05,06,29,11.80
2012,06,05,06,30,11.80
2012,06,05,06,31,11.80
2012,06,05,06,32,11.80
2012,06,05,06,33,11.90
2012,06,05,06,34,11.90
2012,06,05,06,35,11.90
2012,06,05,06,36,11.90
2012,06,05,06,37,11.90
2012,06,05,06,38,11.90
2012,06,05,06,39,11.90
2012,06,05,06,40,11.90
2012,06,05,06,41,11.90
2012,06,05,06,42,11.90
2012,06,05,06,43,11.90
2012,06,05,06,44,11.90
2012,06,05,06,45,11.90
2012,06,05,06,46,11.90
2012,06,05,06,47,11.90
2012,06,05,06,48,11.90
2012,06,05,06,49,11.90
2012,06,05,06,50,11.90
2012,06,05,06,51,11.90
2012,06,05,06,52,11.90
2012,06,05,06,53,11.90
2012,06,05,06,54,11.90
2012,06,05,06,55,12.00
2012,06,05,06,56,12.00
2012,06,05,06,57,12.00
2012,06,05,06,58,12.00
2012,06,05,06,59,12.00
2012,06,05,07,00,12.10
2012,06,05,07,01,12.10
2012,06,05,07,02,12.10
2012,06,05,07,03,12.10
2012,06,05,07,04,12.10
2012,06,05,07,05,12.10
2012,06,05,07,06,12.10
2012,06,05,07,07,12.20
2012,06,05,07,08,12.20
2012,06,05,07,09,12.20
2012,06,05,07,10,12.20
2012,06,05,07,11,12.20
2012,06,05,07,12,12.20
2012,06,05,07,13,12.20
2012,06,05,07,14,12.20
2012,06,05,07,15,12.20
2012,06,05,07,16,12.20
2012,06,05,07,17,12.20
2012,06,05,07,18,12.30
2012,06,05,07,19,12.30
2012,06,05,07,20,12.30
2012,06,05,07,21,12.30
2012,06,05,07,22,12.30
2012,06,05,07,23,12.30
2012,06,05,07,24,12.30
2012,06,05,07,25,12.30
2012,06,05,07,26,12.30
2012,06,05,07,27,12.30
2012,06,05,07,28,12.30
2012,06,05,07,29,12.30
2012,06,05,07,30,12.30
2012,06,05,07,31,12.30
2012,06,05,07,32,12.40
2012,06,05,07,33,12.40
2012,06,05,07,34,12.40
2012,06,05,07,35,12.40
2012,06,05,07,36,12.40
2012,06,05,07,37,12.40
2012,06,05,07,38,12.40
2012,06,05,07,39,12.50
2012,06,05,07,40,12.50
2012,06,05,07,41,12.50
2012,06,05,07,42,12.50
2012,06,05,07,43,12.60
2012,06,05,07,44,12.60
2012,06,05,07,45,12.60
2012,06,05,07,46,12.60
2012,06,05,07,47,12.60
2012,06,05,07,48,12.60
2012,06,05,07,49,12.60
2012,06,05,07,50,12.60
2012,06,05,07,51,12.70
2012,06,05,07,52,12.70
2012,06,05,07,53,12.70
2012,06,05,07,54,12.70
2012,06,05,07,55,12.70
2012,06,05,07,56,12.70
2012,06,05,07,57,12.70
2012,06,05,07,58,12.70
2012,06,05,07,59,12.70
2012,06,05,08,00,12.70
2012,06,05,08,01,12.70
2012,06,05,08,02,12.70
2012,06,05,08,03,12.70
2012,06,05,08,04,12.60
2012,06,05,08,05,12.60
2012,06,05,08,06,12.60
2012,06,05,08,07,12.60
2012,06,05,08,08,12.60
2012,06,05,08,09,12.60
2012,06,05,08,10,12.60
2012,06,05,08,11,12.60
2012,06,05,08,12,12.60
2012,06,05,08,13,12.60
2012,06,05,08,14,12.60
2012,06,05,08,15,12.60
2012,06,05,08,16,12.60
2012,06,05,08,17,12.70
2012,06,05,08,18,12.70
2012,06,05,08,19,12.70
2012,06,05,08,20,12.70
2012,06,05,08,21,12.70
2012,06,05,08,22,12.70
2012,06,05,08,23,12.80
2012,06,05,08,24,12.80
2012,06,05,08,25,12.80
2012,06,05,08,26,12.80
2012,06,05,08,27,12.80
2012,06,05,08,28,12.90
2012,06,05,08,29,12.90
2012,06,05,08,30,12.90
2012,06,05,08,31,12.90
2012,06,05,08,32,12.90
2012,06,05,08,33,12.90
2012,06,05,08,34,13.00
2012,06,05,08,35,13.00
2012,06,05,08,36,13.10
2012,06,05,08,37,13.10
2012,06,05,08,38,13.10
2012,06,05,08,39,13.20
2012,06,05,08,40,13.20
2012,06,05,08,41,13.20
2012,06,05,08,42,13.20
2012,06,05,08,43,13.20
2012,06,05,08,44,13.20
2012,06,05,08,45,13.20
2012,06,05,08,46,13.30
2012,06,05,08,47,13.30
2012,06,05,08,48,13.30
2012,06,05,08,49,13.30
2012,06,05,08,50,13.40
2012,06,05,08,51,13.40
2012,06,05,08,52,13.40
2012,06,05,08,53,13.40
2012,06,05,08,54,13.40
2012,06,05,08,55,13.40
2012,06,05,08,56,13.50
2012,06,05,08,57,13.50
2012,06,05,08,58,13.60
2012,06,05,08,59,13.60
2012,06,05,09,00,13.70
2012,06,05,09,01,13.70
2012,06,05,09,02,13.80
2012,06,05,09,03,13.80
2012,06,05,09,04,13.90
2012,06,05,09,05,13.90
2012,06,05,09,06,13.90
2012,06,05,09,07,14.00
2012,06,05,09,08,14.10
2012,06,05,09,09,14.10
2012,06,05,09,10,14.10
2012,06,05,09,11,14.10
2012,06,05,09,12,14.10
2012,06,05,09,13,14.10
2012,06,05,09,14,14.10
2012,06,05,09,15,14.20
2012,06,05,09,16,14.20
2012,06,05,09,17,14.20
2012,06,05,09,18,14.20
2012,06,05,09,19,14.20
2012,06,05,09,20,14.30
2012,06,05,09,21,14.30
2012,06,05,09,22,14.30
2012,06,05,09,23,14.30
2012,06,05,09,24,14.40
2012,06,05,09,25,14.40
2012,06,05,09,26,14.40
2012,06,05,09,27,14.40
2012,06,05,09,28,14.40
2012,06,05,09,29,14.40
2012,06,05,09,30,14.50
2012,06,05,09,31,14.50
2012,06,05,09,32,14.60
2012,06,05,09,33,14.60
2012,06,05,09,34,14.60
2012,06,05,09,35,14.60
2012,06,05,09,36,14.60
2012,06,05,09,37,14.60
2012,06,05,09,38,14.60
2012,06,05,09,39,14.50
2012,06,05,09,40,14.50
2012,06,05,09,41,14.50
2012,06,05,09,42,14.60
2012,06,05,09,43,14.60
2012,06,05,09,44,14.60
2012,06,05,09,45,14.70
2012,06,05,09,46,14.70
2012,06,05,09,47,14.70
2012,06,05,09,48,14.70
2012,06,05,09,49,14.70
2012,06,05,09,50,14.70
2012,06,05,09,51,14.60
2012,06,05,09,52,14.60
2012,06,05,09,53,14.60
2012,06,05,09,54,14.60
2012,06,05,09,55,14.70
2012,06,05,09,56,14.70
2012,06,05,09,57,14.70
2012,06,05,09,58,14.70
2012,06,05,09,59,14.70
2012,06,05,10,00,14.70
2012,06,05,10,01,14.70
2012,06,05,10,02,14.70
2012,06,05,10,03,14.70
2012,06,05,10,04,14.70
2012,06,05,10,05,14.80
2012,06,05,10,06,14.80
2012,06,05,10,07,14.70
2012,06,05,10,08,14.70
2012,06,05,10,09,14.70
2012,06,05,10,10,14.80
2012,06,05,10,11,14.70
2012,06,05,10,12,14.70
2012,06,05,10,13,14.80
2012,06,05,10,14,14.80
2012,06,05,10,15,14.80
2012,06,05,10,16,14.90
2012,06,05,10,17,14.90
2012,06,05,10,18,15.00
2012,06,05,10,19,15.00
2012,06,05,10,20,15.00
2012,06,05,10,21,15.00
2012,06,05,10,22,15.00
2012,06,05,10,23,15.00
2012,06,05,10,24,15.00
2012,06,05,10,25,15.00
2012,06,05,10,26,15.00
2012,06,05,10,27,15.00
2012,06,05,10,28,15.00
2012,06,05,10,29,15.00
2012,06,05,10,30,14.90
2012,06,05,10,31,14.90
2012,06,05,10,32,15.00
2012,06,05,10,33,15.00
2012,06,05,10,34,15.00
2012,06,05,10,35,15.00
2012,06,05,10,36,15.00
2012,06,05,10,37,15.00
2012,06,05,10,38,15.00
2012,06,05,10,39,15.00
2012,06,05,10,40,15.00
2012,06,05,10,41,15.00
2012,06,05,10,42,15.10
2012,06,05,10,43,15.20
2012,06,05,10,44,15.20
2012,06,05,10,45,15.20
2012,06,05,10,46,15.20
2012,06,05,10,47,15.20
2012,06,05,10,48,15.30
2012,06,05,10,49,15.30
2012,06,05,10,50,15.30
2012,06,05,10,51,15.40
2012,06,05,10,52,15.40
2012,06,05,10,53,15.50
2012,06,05,10,54,15.60
2012,06,05,10,55,15.60
2012,06,05,10,56,15.60
2012,06,05,10,57,15.60
2012,06,05,10,58,15.60
2012,06,05,10,59,15.60
2012,06,05,11,00,15.60
2012,06,05,11,01,15.60
2012,06,05,11,02,15.60
2012,06,05,11,03,15.60
2012,06,05,11,04,15.50
2012,06,05,11,05,15.60
2012,06,05,11,06,15.60
2012,06,05,11,07,15.60
2012,06,05,11,08,15.60
2012,06,05,11,09,15.70
2012,06,05,11,10,15.60
2012,06,05,11,11,15.60
2012,06,05,11,12,15.60
2012,06,05,11,13,15.60
2012,06,05,11,14,15.60
2012,06,05,11,15,15.60
2012,06,05,11,16,15.60
2012,06,05,11,17,15.60
2012,06,05,11,18,15.60
2012,06,05,11,19,15.70
2012,06,05,11,20,15.70
2012,06,05,11,21,15.70
2012,06,05,11,22,15.80
2012,06,05,11,23,15.80
2012,06,05,11,24,15.80
2012,06,05,11,25,15.80
2012,06,05,11,26,15.80
2012,06,05,11,27,15.80
2012,06,05,11,28,15.80
2012,06,05,11,29,15.80
2012,06,05,11,30,15.90
2012,06,05,11,31,16.00
2012,06,05,11,32,16.00
2012,06,05,11,33,16.10
2012,06,05,11,34,16.10
2012,06,05,11,35,16.10
2012,06,05,11,36,16.10
2012,06,05,11,37,16.10
2012,06,05,11,38,16.00
2012,06,05,11,39,15.90
2012,06,05,11,40,15.90
2012,06,05,11,41,15.90
2012,06,05,11,42,15.90
2012,06,05,11,43,15.90
2012,06,05,11,44,15.90
2012,06,05,11,45,15.90
2012,06,05,11,46,15.90
2012,06,05,11,47,15.90
2012,06,05,11,48,15.90
2012,06,05,11,49,15.90
2012,06,05,11,50,15.90
2012,06,05,11,51,15.90
2012,06,05,11,52,15.80
2012,06,05,11,53,15.80
2012,06,05,11,54,15.80
2012,06,05,11,55,15.80
2012,06,05,11,56,15.70
2012,06,05,11,57,15.70
2012,06,05,11,58,15.70
2012,06,05,11,59,15.70
2012,06,05,12,00,15.70
2012,06,05,12,01,15.80
2012,06,05,12,02,15.90
2012,06,05,12,03,15.90
2012,06,05,12,04,16.00
2012,06,05,12,05,16.00
2012,06,05,12,06,16.10
2012,06,05,12,07,16.20
2012,06,05,12,08,16.20
2012,06,05,12,09,16.30
2012,06,05,12,10,16.30
2012,06,05,12,11,16.20
2012,06,05,12,12,16.20
2012,06,05,12,13,16.10
2012,06,05,12,14,16.00
2012,06,05,12,15,16.00
2012,06,05,12,16,16.00
2012,06,05,12,17,16.00
2012,06,05,12,18,16.00
2012,06,05,12,19,15.90
2012,06,05,12,20,15.90
2012,06,05,12,21,15.90
2012,06,05,12,22,15.90
2012,06,05,12,23,16.00
2012,06,05,12,24,16.00
2012,06,05,12,25,16.10
2012,06,05,12,26,16.10
2012,06,05,12,27,16.10
2012,06,05,12,28,16.20
2012,06,05,12,29,16.20
2012,06,05,12,30,16.20
2012,06,05,12,31,16.20
2012,06,05,12,32,16.30
2012,06,05,12,33,16.20
2012,06,05,12,34,16.30
2012,06,05,12,35,16.30
2012,06,05,12,36,16.30
2012,06,05,12,37,16.30
2012,06,05,12,38,16.30
2012,06,05,12,39,16.30
2012,06,05,12,40,16.30
2012,06,05,12,41,16.30
2012,06,05,12,42,16.20
2012,06,05,12,43,16.20
2012,06,05,12,44,16.20
2012,06,05,12,45,16.20
2012,06,05,12,46,16.20
2012,06,05,12,47,16.20
2012,06,05,12,48,16.20
2012,06,05,12,49,16.20
2012,06,05,12,50,16.20
2012,06,05,12,51,16.30
2012,06,05,12,52,16.30
2012,06,05,12,53,16.30
2012,06,05,12,54,16.30
2012,06,05,12,55,16.30
2012,06,05,12,56,16.40
2012,06,05,12,57,16.40
2012,06,05,12,58,16.40
2012,06,05,12,59,16.40
2012,06,05,13,00,16.40
2012,06,05,13,01,16.40
2012,06,05,13,02,16.50
2012,06,05,13,03,16.60
2012,06,05,13,04,16.60
2012,06,05,13,05,16.60
2012,06,05,13,06,16.60
2012,06,05,13,07,16.50
2012,06,05,13,08,16.50
2012,06,05,13,09,16.40
2012,06,05,13,10,16.30
2012,06,05,13,11,16.30
2012,06,05,13,12,16.30
2012,06,05,13,13,16.30
2012,06,05,13,14,16.40
2012,06,05,13,15,16.40
2012,06,05,13,16,16.40
2012,06,05,13,17,16.40
2012,06,05,13,18,16.40
2012,06,05,13,19,16.40
2012,06,05,13,20,16.30
2012,06,05,13,21,16.40
2012,06,05,13,22,16.40
2012,06,05,13,23,16.40
2012,06,05,13,24,16.50
2012,06,05,13,25,16.50
2012,06,05,13,26,16.50
2012,06,05,13,27,16.50
2012,06,05,13,28,16.60
2012,06,05,13,29,16.60
2012,06,05,13,30,16.70
2012,06,05,13,31,16.70
2012,06,05,13,32,16.70
2012,06,05,13,33,16.70
2012,06,05,13,34,16.60
2012,06,05,13,35,16.60
2012,06,05,13,36,16.60
2012,06,05,13,37,16.70
2012,06,05,13,38,16.70
2012,06,05,13,39,16.70
2012,06,05,13,40,16.70
2012,06,05,13,41,16.70
2012,06,05,13,42,16.70
2012,06,05,13,43,16.60
2012,06,05,13,44,16.60
2012,06,05,13,45,16.50
2012,06,05,13,46,16.50
2012,06,05,13,47,16.50
2012,06,05,13,48,16.50
2012,06,05,13,49,16.60
2012,06,05,13,50,16.60
2012,06,05,13,51,16.60
2012,06,05,13,52,16.70
2012,06,05,13,53,16.70
2012,06,05,13,54,16.70
2012,06,05,13,55,16.70
2012,06,05,13,56,16.60
2012,06,05,13,57,16.60
2012,06,05,13,58,16.60
2012,06,05,13,59,16.70
2012,06,05,14,00,16.70
2012,06,05,14,01,16.70
2012,06,05,14,02,16.60
2012,06,05,14,03,16.60
2012,06,05,14,04,16.60
2012,06,05,14,05,16.60
2012,06,05,14,06,16.70
2012,06,05,14,07,16.70
2012,06,05,14,08,16.60
2012,06,05,14,09,16.60
2012,06,05,14,10,16.60
2012,06,05,14,11,16.60
2012,06,05,14,12,16.60
2012,06,05,14,13,16.50
2012,06,05,14,14,16.40
2012,06,05,14,15,16.40
2012,06,05,14,16,16.40
2012,06,05,14,17,16.40
2012,06,05,14,18,16.40
2012,06,05,14,19,16.50
2012,06,05,14,20,16.50
2012,06,05,14,21,16.40
2012,06,05,14,22,16.40
2012,06,05,14,23,16.40
2012,06,05,14,24,16.40
2012,06,05,14,25,16.40
2012,06,05,14,26,16.40
2012,06,05,14,27,16.40
2012,06,05,14,28,16.50
2012,06,05,14,29,16.60
2012,06,05,14,30,16.60
2012,06,05,14,31,16.60
2012,06,05,14,32,16.50
2012,06,05,14,33,16.50
2012,06,05,14,34,16.50
2012,06,05,14,35,16.50
2012,06,05,14,36,16.40
2012,06,05,14,37,16.50
2012,06,05,14,38,16.50
2012,06,05,14,39,16.60
2012,06,05,14,40,16.60
2012,06,05,14,41,16.60
2012,06,05,14,42,16.60
2012,06,05,14,43,16.50
2012,06,05,14,44,16.40
2012,06,05,14,45,16.40
2012,06,05,14,46,16.40
2012,06,05,14,47,16.40
2012,06,05,14,48,16.40
2012,06,05,14,49,16.40
2012,06,05,14,50,16.40
2012,06,05,14,51,16.40
2012,06,05,14,52,16.40
2012,06,05,14,53,16.40
2012,06,05,14,54,16.40
2012,06,05,14,55,16.40
2012,06,05,14,56,16.30
2012,06,05,14,57,16.30
2012,06,05,14,58,16.40
2012,06,05,14,59,16.40
2012,06,05,15,00,16.50
2012,06,05,15,01,16.60
2012,06,05,15,02,16.60
2012,06,05,15,03,16.70
2012,06,05,15,04,16.60
2012,06,05,15,05,16.60
2012,06,05,15,06,16.60
2012,06,05,15,07,16.60
2012,06,05,15,08,16.60
2012,06,05,15,09,16.60
2012,06,05,15,10,16.60
2012,06,05,15,11,16.50
2012,06,05,15,12,16.50
2012,06,05,15,13,16.50
2012,06,05,15,14,16.40
2012,06,05,15,15,16.40
2012,06,05,15,16,16.40
2012,06,05,15,17,16.40
2012,06,05,15,18,16.30
2012,06,05,15,19,16.40
2012,06,05,15,20,16.40
2012,06,05,15,21,16.40
2012,06,05,15,22,16.40
2012,06,05,15,23,16.40
2012,06,05,15,24,16.40
2012,06,05,15,25,16.40
2012,06,05,15,26,16.40
2012,06,05,15,27,16.40
2012,06,05,15,28,16.50
2012,06,05,15,29,16.50
2012,06,05,15,30,16.50
2012,06,05,15,31,16.60
2012,06,05,15,32,16.60
2012,06,05,15,33,16.60
2012,06,05,15,34,16.60
2012,06,05,15,35,16.50
2012,06,05,15,36,16.50
2012,06,05,15,37,16.40
2012,06,05,15,38,16.40
2012,06,05,15,39,16.40
2012,06,05,15,40,16.40
2012,06,05,15,41,16.40
2012,06,05,15,42,16.40
2012,06,05,15,43,16.40
2012,06,05,15,44,16.40
2012,06,05,15,45,16.40
2012,06,05,15,46,16.30
2012,06,05,15,47,16.30
2012,06,05,15,48,16.30
2012,06,05,15,49,16.30
2012,06,05,15,50,16.30
2012,06,05,15,51,16.30
2012,06,05,15,52,16.40
2012,06,05,15,53,16.40
2012,06,05,15,54,16.40
2012,06,05,15,55,16.40
2012,06,05,15,56,16.40
2012,06,05,15,57,16.40
2012,06,05,15,58,16.40
2012,06,05,15,59,16.50
2012,06,05,16,00,16.50
2012,06,05,16,01,16.50
2012,06,05,16,02,16.50
2012,06,05,16,03,16.50
2012,06,05,16,04,16.60
2012,06,05,16,05,16.60
2012,06,05,16,06,16.60
2012,06,05,16,07,16.60
2012,06,05,16,08,16.60
2012,06,05,16,09,16.50
2012,06,05,16,10,16.50
2012,06,05,16,11,16.50
2012,06,05,16,12,16.50
2012,06,05,16,13,16.50
2012,06,05,16,14,16.60
2012,06,05,16,15,16.60
2012,06,05,16,16,16.60
2012,06,05,16,17,16.50
2012,06,05,16,18,16.50
2012,06,05,16,19,16.50
2012,06,05,16,20,16.50
2012,06,05,16,21,16.40
2012,06,05,16,22,16.40
2012,06,05,16,23,16.40
2012,06,05,16,24,16.40
2012,06,05,16,25,16.40
2012,06,05,16,26,16.40
2012,06,05,16,27,16.40
2012,06,05,16,28,16.40
2012,06,05,16,29,16.40
2012,06,05,16,30,16.40
2012,06,05,16,31,16.50
2012,06,05,16,32,16.50
2012,06,05,16,33,16.50
2012,06,05,16,34,16.50
2012,06,05,16,35,16.60
2012,06,05,16,36,16.60
2012,06,05,16,37,16.70
2012,06,05,16,38,16.70
2012,06,05,16,39,16.70
2012,06,05,16,40,16.70
2012,06,05,16,41,16.70
2012,06,05,16,42,16.70
2012,06,05,16,43,16.70
2012,06,05,16,44,16.60
2012,06,05,16,45,16.60
2012,06,05,16,46,16.50
2012,06,05,16,47,16.50
2012,06,05,16,48,16.40
2012,06,05,16,49,16.40
2012,06,05,16,50,16.40
2012,06,05,16,51,16.40
2012,06,05,16,52,16.40
2012,06,05,16,53,16.40
2012,06,05,16,54,16.40
2012,06,05,16,55,16.40
2012,06,05,16,56,16.40
2012,06,05,16,57,16.40
2012,06,05,16,58,16.30
2012,06,05,16,59,16.30
2012,06,05,17,00,16.30
2012,06,05,17,01,16.30
2012,06,05,17,02,16.30
2012,06,05,17,03,16.30
2012,06,05,17,04,16.30
2012,06,05,17,05,16.30
2012,06,05,17,06,16.20
2012,06,05,17,07,16.20
2012,06,05,17,08,16.20
2012,06,05,17,09,16.20
2012,06,05,17,10,16.20
2012,06,05,17,11,16.20
2012,06,05,17,12,16.10
2012,06,05,17,13,16.10
2012,06,05,17,14,16.10
2012,06,05,17,15,16.10
2012,06,05,17,16,16.10
2012,06,05,17,17,16.20
2012,06,05,17,18,16.20
2012,06,05,17,19,16.20
2012,06,05,17,20,16.20
2012,06,05,17,21,16.20
2012,06,05,17,22,16.20
2012,06,05,17,23,16.20
2012,06,05,17,24,16.20
2012,06,05,17,25,16.20